When you browse on this site, cookies collect data to enhance your experience and personalize the content and advertising you see.
Visit our Privacy Policy to learn more. By continuing to use the site, you agree to this use of cookies and data.
  • In Germany
  • List of Countries
  • For 7 days
  • Water Temperature
  • Weather Map
  • Weather Widgets
  • user-avatar
    Login

    Hourly Weather Vanadzor

    Today, 19 November, Tuesday

    Time Temperature Precipitation Wind Pressure Humidity
    00:00 +1°C° 0 mm 0 mps 638 mmHg 51%
    01:00 +1°C° 0 mm 0 mps 637 mmHg 48%
    02:00 +1°C° 0 mm 0 mps 637 mmHg 45%
    03:00 +1°C° 0 mm 0 mps 637 mmHg 39%
    04:00 +1°C° 0 mm 0 mps 637 mmHg 37%
    05:00 +2°C° 0 mm 1 mps 637 mmHg 35%
    06:00 +2°C° 0 mm 1 mps 637 mmHg 32%
    07:00 +3°C° 0 mm 1 mps 638 mmHg 29%
    08:00 +5°C° 0 mm 1 mps 638 mmHg 26%
    09:00 +6°C° 0 mm 1 mps 639 mmHg 22%
    10:00 +7°C° 0 mm 1 mps 639 mmHg 22%
    11:00 +9°C° 0 mm 1 mps 639 mmHg 21%
    12:00 +10°C° 0 mm 1 mps 639 mmHg 20%
    13:00 +10°C° 0 mm 1 mps 638 mmHg 22%
    14:00 +10°C° 0 mm 1 mps 638 mmHg 23%
    15:00 +9°C° 0 mm 1 mps 637 mmHg 25%
    16:00 +8°C° 0 mm 1 mps 637 mmHg 28%
    17:00 +6°C° 0 mm 1 mps 637 mmHg 31%
    18:00 +3°C° 0 mm 0 mps 637 mmHg 35%
    19:00 +3°C° 0 mm 0 mps 637 mmHg 34%
    20:00 +3°C° 0 mm 0 mps 637 mmHg 34%
    21:00 +3°C° 0 mm 0 mps 637 mmHg 33%
    22:00 +3°C° 0 mm 0 mps 637 mmHg 34%
    23:00 +2°C° 0 mm 0 mps 637 mmHg 35%

    Tomorrow, 20 November, Wednesday

    Time Temperature Precipitation Wind Pressure Humidity
    00:00 +2°C° 0 mm 0 mps 637 mmHg 35%
    01:00 +2°C° 0 mm 0 mps 637 mmHg 36%
    02:00 +2°C° 0 mm 0 mps 637 mmHg 37%
    03:00 +2°C° 0 mm 0 mps 637 mmHg 37%
    04:00 +2°C° 0 mm 0 mps 636 mmHg 37%
    05:00 +2°C° 0 mm 1 mps 636 mmHg 37%
    06:00 +2°C° 0 mm 1 mps 636 mmHg 36%
    07:00 +4°C° 0 mm 1 mps 637 mmHg 33%
    08:00 +4°C° 0 mm 0 mps 637 mmHg 29%
    09:00 +6°C° 0 mm 0 mps 638 mmHg 26%
    10:00 +7°C° 0 mm 0 mps 638 mmHg 24%
    11:00 +9°C° 0 mm 1 mps 637 mmHg 23%
    12:00 +10°C° 0 mm 1 mps 637 mmHg 21%
    13:00 +10°C° 0 mm 1 mps 637 mmHg 23%
    14:00 +10°C° 0 mm 1 mps 637 mmHg 25%
    15:00 +10°C° 0 mm 1 mps 636 mmHg 27%
    16:00 +8°C° 0 mm 1 mps 636 mmHg 34%
    17:00 +5°C° 0 mm 0 mps 635 mmHg 40%
    18:00 +3°C° 0 mm 0 mps 635 mmHg 47%
    19:00 +2°C° 0 mm 0 mps 635 mmHg 48%
    20:00 +2°C° 0 mm 0 mps 635 mmHg 49%
    21:00 +2°C° 0 mm 0 mps 635 mmHg 51%
    22:00 +1°C° 0 mm 0 mps 635 mmHg 53%
    23:00 +1°C° 0 mm 0 mps 635 mmHg 55%

    Day after tomorrow, 21 November, Thursday

    Time Temperature Precipitation Wind Pressure Humidity
    00:00 0°C° 0 mm 0 mps 635 mmHg 58%
    01:00 0°C° 0 mm 0 mps 634 mmHg 60%
    02:00 0°C° 0 mm 0 mps 634 mmHg 61%
    03:00 -1°C° 0 mm 0 mps 634 mmHg 63%
    04:00 -1°C° 0 mm 0 mps 634 mmHg 65%
    05:00 -1°C° 0 mm 0 mps 634 mmHg 67%
    06:00 -1°C° 0 mm 0 mps 634 mmHg 69%
    07:00 -1°C° 0 mm 0 mps 634 mmHg 67%
    08:00 +1°C° 0 mm 1 mps 635 mmHg 64%
    09:00 +2°C° 0 mm 1 mps 635 mmHg 62%
    10:00 +3°C° 0 mm 1 mps 635 mmHg 60%
    11:00 +4°C° 0 mm 1 mps 635 mmHg 58%
    12:00 +3°C° 0 mm 2 mps 635 mmHg 56%
    13:00 +3°C° 0 mm 2 mps 635 mmHg 62%
    14:00 +2°C° 0 mm 2 mps 634 mmHg 68%
    15:00 +2°C° 0 mm 2 mps 634 mmHg 74%
    16:00 +1°C° 0.1 mm 2 mps 634 mmHg 80%
    17:00 -1°C° 0.1 mm 2 mps 634 mmHg 86%
    18:00 -1°C° 0.1 mm 2 mps 634 mmHg 91%
    19:00 -2°C° 0.1 mm 2 mps 635 mmHg 91%
    20:00 -2°C° 0.1 mm 2 mps 635 mmHg 91%
    21:00 -2°C° 0.1 mm 2 mps 636 mmHg 90%
    22:00 -2°C° 0.1 mm 2 mps 636 mmHg 90%
    23:00 -2°C° 0.1 mm 2 mps 636 mmHg 90%

    22 November, Friday

    Time Temperature Precipitation Wind Pressure Humidity
    00:00 -2°C° 0.1 mm 2 mps 636 mmHg 91%
    01:00 -2°C° 0.1 mm 2 mps 637 mmHg 91%
    02:00 -3°C° 0.1 mm 2 mps 637 mmHg 91%
    03:00 -3°C° 0.1 mm 2 mps 637 mmHg 91%
    04:00 -3°C° 0.1 mm 2 mps 637 mmHg 92%
    05:00 -3°C° 0.1 mm 2 mps 638 mmHg 92%
    06:00 -3°C° 0.1 mm 2 mps 638 mmHg 93%
    07:00 -3°C° 0.1 mm 2 mps 638 mmHg 90%
    08:00 -3°C° 0.1 mm 2 mps 639 mmHg 86%
    09:00 -2°C° 0.1 mm 2 mps 639 mmHg 83%
    10:00 -2°C° 0.1 mm 2 mps 639 mmHg 80%
    11:00 -1°C° 0.1 mm 2 mps 639 mmHg 77%
    12:00 -1°C° 0.1 mm 2 mps 638 mmHg 75%
    13:00 -1°C° 0.1 mm 2 mps 638 mmHg 77%
    14:00 -1°C° 0.1 mm 2 mps 638 mmHg 78%
    15:00 -1°C° 0.1 mm 2 mps 637 mmHg 80%
    16:00 -2°C° 0.1 mm 2 mps 638 mmHg 84%
    17:00 -3°C° 0.1 mm 2 mps 638 mmHg 88%
    18:00 -1°C° 0.1 mm 1 mps 638 mmHg 92%
    19:00 -2°C° 0 mm 1 mps 638 mmHg 92%
    20:00 -2°C° 0 mm 1 mps 638 mmHg 91%
    21:00 -2°C° 0 mm 1 mps 638 mmHg 91%
    22:00 -2°C° 0 mm 1 mps 639 mmHg 91%
    23:00 -2°C° 0 mm 1 mps 639 mmHg 91%

    23 November, Saturday

    Time Temperature Precipitation Wind Pressure Humidity
    00:00 -2°C° 0 mm 1 mps 639 mmHg 91%
    01:00 -3°C° 0 mm 1 mps 638 mmHg 92%
    02:00 -3°C° 0 mm 1 mps 638 mmHg 92%
    03:00 -3°C° 0 mm 1 mps 638 mmHg 93%
    04:00 -3°C° 0 mm 1 mps 638 mmHg 93%
    05:00 -3°C° 0 mm 1 mps 638 mmHg 93%
    06:00 -5°C° 0 mm 0 mps 638 mmHg 94%
    07:00 -4°C° 0 mm 0 mps 638 mmHg 89%
    08:00 -3°C° 0 mm 0 mps 639 mmHg 84%
    09:00 -2°C° 0 mm 0 mps 639 mmHg 80%
    10:00 0°C° 0 mm 1 mps 639 mmHg 76%
    11:00 +1°C° 0 mm 1 mps 639 mmHg 73%
    12:00 +2°C° 0 mm 1 mps 638 mmHg 69%
    13:00 +2°C° 0 mm 1 mps 638 mmHg 71%
    14:00 +2°C° 0 mm 1 mps 638 mmHg 72%
    15:00 +2°C° 0 mm 1 mps 637 mmHg 73%
    16:00 +1°C° 0 mm 1 mps 637 mmHg 78%
    17:00 0°C° 0 mm 1 mps 637 mmHg 83%
    18:00 -2°C° 0 mm 0 mps 637 mmHg 88%
    19:00 -2°C° 0 mm 0 mps 637 mmHg 88%
    20:00 -2°C° 0 mm 0 mps 637 mmHg 88%
    21:00 -3°C° 0 mm 0 mps 637 mmHg 89%
    22:00 -3°C° 0 mm 0 mps 637 mmHg 88%
    23:00 -3°C° 0 mm 0 mps 637 mmHg 88%

    24 November, Sunday

    Time Temperature Precipitation Wind Pressure Humidity
    00:00 -3°C° 0 mm 0 mps 637 mmHg 87%
    01:00 -3°C° 0 mm 0 mps 637 mmHg 86%
    02:00 -3°C° 0 mm 0 mps 637 mmHg 86%
    03:00 -3°C° 0 mm 0 mps 637 mmHg 85%
    04:00 -3°C° 0 mm 0 mps 637 mmHg 84%
    05:00 -3°C° 0 mm 0 mps 637 mmHg 84%
    06:00 -2°C° 0 mm 1 mps 637 mmHg 83%
    07:00 -1°C° 0 mm 1 mps 637 mmHg 77%
    08:00 0°C° 0 mm 1 mps 638 mmHg 72%
    09:00 +1°C° 0 mm 1 mps 638 mmHg 66%
    10:00 +2°C° 0 mm 1 mps 638 mmHg 63%
    11:00 +4°C° 0 mm 1 mps 638 mmHg 59%
    12:00 +5°C° 0 mm 1 mps 638 mmHg 56%
    13:00 +4°C° 0 mm 1 mps 637 mmHg 59%
    14:00 +4°C° 0 mm 1 mps 637 mmHg 62%
    15:00 +4°C° 0 mm 1 mps 637 mmHg 65%
    16:00 +3°C° 0 mm 1 mps 636 mmHg 72%
    17:00 0°C° 0 mm 0 mps 636 mmHg 78%
    18:00 -1°C° 0 mm 0 mps 636 mmHg 85%
    19:00 -1°C° 0 mm 0 mps 636 mmHg 84%
    20:00 -1°C° 0 mm 0 mps 636 mmHg 84%
    21:00 -1°C° 0 mm 0 mps 636 mmHg 83%
    22:00 -1°C° 0 mm 0 mps 636 mmHg 83%
    23:00 -1°C° 0 mm 0 mps 636 mmHg 83%
    Show more